GW3736 Weather Reports


time (UTC)temp
F
wind
direction
speed
knots
gust
knots
rain 1hr
in
rain 24hr
in
rain mn
in
humidity
%
barometer
mb
20260902092535 77 110 0.9 2.6 0.00 0.00 0.00 85 1010.1
20260902091531 77 110 0.9 2.6 0.00 0.00 0.00 85 1010.0
20260902090527 77 110 0.9 2.6 0.00 0.00 0.00 85 1009.8
20260902085523 76 109 1.7 2.6 0.00 0.00 0.00 85 1009.8
20260902084520 76 110 1.7 2.6 0.00 0.00 0.00 84 1009.8
20260902083516 76 111 1.7 6.1 0.00 0.00 0.00 84 1009.9
20260902082532 76 112 1.7 2.6 0.00 0.00 0.00 84 1010.0
20260902081530 76 112 0.9 2.6 0.00 0.00 0.00 84 1009.9
20260902080544 76 111 1.7 3.5 0.00 0.00 0.00 84 1009.6
20260902075520 76 111 0.9 3.5 0.00 0.00 0.00 84 1009.6
20260902074537 76 111 1.7 3.5 0.00 0.00 0.00 84 1009.8
20260902073533 76 111 1.7 3.5 0.00 0.00 0.00 84 1009.8
20260902072549 76 111 1.7 3.5 0.00 0.00 0.00 84 1009.7
20260902071525 76 111 0.9 2.6 0.00 0.00 0.00 83 1009.9
20260902070521 76 111 0.9 2.6 0.00 0.00 0.00 83 1009.9
20260902065517 76 111 0.0 0.9 0.00 0.00 0.00 83 1009.9
20260902064533 76 111 0.9 2.6 0.00 0.00 0.00 83 1010.0
20260902063530 76 111 0.9 1.7 0.00 0.00 0.00 83 1010.0
20260902062525 76 111 0.9 1.7 0.00 0.00 0.00 83 1010.3
20260902061522 76 111 0.9 1.7 0.00 0.00 0.00 82 1010.2
20260902060518 77 111 0.9 0.9 0.00 0.00 0.00 82 1010.4
20260902055534 77 111 0.9 1.7 0.00 0.00 0.00 82 1010.7
20260902054530 77 111 0.9 1.7 0.00 0.00 0.00 82 1010.6
20260902053547 77 111 0.9 1.7 0.00 0.00 0.00 82 1010.7
20260902052523 77 111 0.9 1.7 0.00 0.00 0.00 81 1010.7
20260902051519 77 111 0.0 0.9 0.00 0.00 0.00 81 1010.7
20260902050555 77 111 0.9 1.7 0.00 0.00 0.00 81 1010.6
20260902045551 77 111 0.9 2.6 0.00 0.00 0.00 80 1010.7
20260902044527 77 0.0 0.0 0.00 0.00 0.00 80 1010.7
20260902043524 77 111 0.9 0.9 0.00 0.00 0.00 80 1010.6
20260902042520 78 111 0.9 0.9 0.00 0.00 0.00 79 1010.5
20260902041535 78 0.0 0.0 0.00 0.00 0.00 79 1010.5
20260902040531 78 0.0 0.0 0.00 0.00 0.00 79 1010.5
20260902035526 78 112 0.0 0.9 0.00 0.00 0.00 78 1010.5
20260902034524 78 112 0.0 2.6 0.00 0.00 0.00 78 1010.4
20260902033520 79 112 0.0 0.9 0.00 0.00 0.00 78 1010.3
20260902032535 79 112 0.0 0.9 0.00 0.00 0.00 77 1010.3
20260902031531 79 112 0.0 0.9 0.00 0.00 0.00 77 1010.3
20260902030527 80 112 0.0 0.9 0.00 0.00 0.00 76 1010.2
20260902025523 80 0.0 0.0 0.00 0.00 0.00 75 1010.2
20260902024521 81 137 0.0 0.9 0.00 0.00 0.00 75 1010.1
20260902023515 81 137 0.0 0.9 0.00 0.00 0.00 74 1010.1
20260902022553 82 162 0.0 0.9 0.00 0.00 0.00 73 1010.2
20260902021548 83 166 0.9 3.5 0.00 0.00 0.00 73 1010.1
20260902020544 83 178 1.7 6.1 0.00 0.00 0.00 73 1010.2
20260902015540 83 169 1.7 3.5 0.00 0.00 0.00 73 1010.1
20260902014518 83 181 1.7 2.6 0.00 0.00 0.00 73 1010.2
20260902013532 83 183 2.6 6.1 0.00 0.00 0.00 72 1010.2
20260902012528 84 184 2.6 5.2 0.00 0.00 0.00 72 1010.0
20260902011545 84 184 2.6 6.1 0.00 0.00 0.00 73 1009.8
20260902010521 84 188 2.6 7.8 0.00 0.00 0.00 73 1009.8
20260902005600 84 189 3.5 7.0 0.00 0.00 0.00 74 1009.6
20260902004533 84 185 2.6 7.0 0.00 0.00 0.00 74 1009.4
20260902003530 84 188 3.5 8.7 0.00 0.00 0.00 75 1009.3
20260902002526 84 184 2.6 6.1 0.00 0.00 0.00 75 1009.1
20260902001522 83 187 3.5 8.7 0.00 0.00 0.00 76 1009.4
20260902000518 83 181 1.7 5.2 0.00 0.00 0.00 76 1009.3
20260901235534 83 150 0.9 3.5 0.00 0.00 0.00 75 1009.3
20260901234530 83 143 0.0 0.9 0.00 0.00 0.00 75 1009.1
20260901233530 84 113 0.0 0.9 0.00 0.00 0.00 74 1009.3
20260901232524 84 113 0.9 0.9 0.00 0.00 0.00 73 1009.3
20260901231519 85 0.0 0.0 0.00 0.00 0.00 73 1009.3
20260901230515 85 113 0.9 1.7 0.00 0.00 0.00 72 1009.3
20260901225531 85 113 1.7 2.6 0.00 0.00 0.00 72 1009.2
20260901224527 85 114 0.9 1.7 0.00 0.00 0.00 72 1009.3
20260901223525 85 114 1.7 2.6 0.00 0.00 0.00 72 1009.3
20260901222520 85 113 0.0 0.9 0.00 0.00 0.00 72 1009.4
20260901221516 85 114 0.9 0.9 0.00 0.00 0.00 72 1009.2
20260901220532 86 114 0.9 1.7 0.00 0.00 0.00 72 1009.1
20260901215549 85 113 0.9 1.7 0.00 0.00 0.00 73 1009.1
20260901214546 85 113 0.9 1.7 0.00 0.00 0.00 74 1009.1
20260901213521 84 113 0.9 1.7 0.00 0.00 0.00 75 1009.1
20260901212517 84 113 0.9 1.7 0.00 0.00 0.00 74 1009.2
20260901211556 84 113 0.9 1.7 0.00 0.00 0.00 74 1009.3
20260901210529 84 113 0.9 2.6 0.00 0.00 0.00 73 1009.4
20260901205525 84 113 1.7 2.6 0.00 0.00 0.00 73 1009.4
20260901204542 84 120 2.6 5.2 0.00 0.00 0.00 72 1009.4
20260901203538 84 120 0.9 2.6 0.00 0.00 0.00 71 1009.5
20260901202556 85 119 1.7 5.2 0.00 0.00 0.00 71 1009.4
20260901201550 85 122 2.6 7.0 0.00 0.00 0.00 71 1009.5
20260901200526 85 120 4.3 7.8 0.00 0.00 0.00 71 1009.4
20260901195522 85 120 2.6 6.1 0.00 0.00 0.00 71 1009.5
20260901194519 86 119 2.6 7.0 0.00 0.00 0.00 71 1009.6
20260901193537 86 122 2.6 5.2 0.00 0.00 0.00 70 1009.7
20260901192531 87 121 1.7 5.2 0.00 0.00 0.00 70 1009.7
20260901191527 87 124 4.3 7.8 0.00 0.00 0.00 70 1009.5
20260901190524 87 122 4.3 7.8 0.00 0.00 0.00 71 1009.5
20260901185520 87 124 4.3 7.0 0.00 0.00 0.00 71 1009.4
20260901184516 88 125 5.2 7.8 0.00 0.00 0.00 71 1009.4
20260901183552 87 126 3.5 7.0 0.00 0.00 0.00 71 1009.5
20260901182529 87 131 3.5 7.0 0.00 0.00 0.00 71 1009.5
20260901181525 87 136 4.3 7.8 0.00 0.00 0.00 71 1009.6
20260901180541 87 140 3.5 6.1 0.00 0.00 0.00 71 1009.7
20260901175518 87 134 4.3 7.0 0.00 0.00 0.00 70 1009.6
20260901174533 87 141 3.5 7.0 0.00 0.00 0.00 71 1009.7
20260901173553 87 139 4.3 7.8 0.00 0.00 0.00 70 1009.6
20260901172526 87 137 4.3 8.7 0.00 0.00 0.00 70 1009.9
20260901171542 87 136 4.3 7.8 0.00 0.00 0.00 72 1010.0
20260901170518 87 144 3.5 7.0 0.00 0.02 0.00 72 1010.2
20260901165534 87 139 3.5 7.0 0.00 0.02 0.00 72 1010.3
20260901164530 87 139 3.5 6.1 0.00 0.02 0.00 73 1010.5
20260901163607 86 139 3.5 6.1 0.00 0.02 0.00 73 1010.5
20260901162524 86 139 2.6 5.2 0.00 0.02 0.00 73 1010.5
20260901161519 85 155 4.3 7.8 0.00 0.02 0.00 74 1010.6
20260901160515 84 176 1.7 5.2 0.00 0.02 0.00 74 1010.7
20260901155532 84 186 0.9 2.6 0.00 0.02 0.00 74 1010.6
20260901154527 84 184 1.7 5.2 0.00 0.02 0.00 74 1010.7
20260901153524 83 184 2.6 7.0 0.00 0.02 0.00 75 1010.6
20260901152520 83 184 2.6 5.2 0.00 0.02 0.00 76 1010.7
20260901151516 82 178 0.9 5.2 0.00 0.02 0.00 78 1010.8
20260901150552 81 183 2.6 7.0 0.00 0.02 0.00 78 1010.9
20260901145528 81 184 2.6 5.2 0.00 0.02 0.00 78 1011.0
20260901144545 81 190 4.3 7.8 0.00 0.02 0.00 78 1011.0
20260901143541 81 183 1.7 3.5 0.00 0.02 0.00 79 1010.8
20260901142517 80 181 1.7 3.5 0.00 0.02 0.00 80 1010.7
20260901141553 80 184 2.6 3.5 0.00 0.02 0.00 80 1010.8
20260901140530 80 184 1.7 5.2 0.00 0.02 0.00 81 1010.7
20260901135525 79 183 2.6 5.2 0.00 0.02 0.00 82 1010.7
20260901134521 79 183 2.6 5.2 0.00 0.02 0.00 82 1010.6
20260901133519 78 185 2.6 6.1 0.00 0.02 0.00 83 1010.6
20260901132534 78 183 1.7 5.2 0.00 0.02 0.00 84 1010.4
20260901131530 77 182 2.6 3.5 0.00 0.02 0.00 85 1010.6
20260901130546 76 182 1.7 5.2 0.00 0.02 0.00 86 1010.8
20260901125522 76 183 1.7 5.2 0.00 0.02 0.00 86 1010.8
20260901124558 75 184 2.6 6.1 0.00 0.02 0.00 87 1011.0
20260901123535 75 182 1.7 3.5 0.00 0.02 0.00 87 1010.9
20260901122551 74 182 1.7 3.5 0.00 0.02 0.00 87 1010.8
20260901121527 74 182 1.7 3.5 0.00 0.02 0.00 87 1010.7
20260901120522 73 180 1.7 3.5 0.00 0.02 0.00 87 1010.7
20260901115621 73 179 0.9 1.7 0.00 0.02 0.00 87 1010.6
20260901114535 73 181 0.9 2.6 0.00 0.02 0.00 87 1010.5
20260901113531 73 181 0.9 1.7 0.00 0.02 0.00 86 1010.5
20260901112529 73 181 0.0 1.7 0.00 0.02 0.00 86 1010.4
20260901111524 73 181 0.0 0.9 0.00 0.02 0.00 86 1010.4
20260901110520 73 181 0.0 0.9 0.00 0.02 0.00 86 1010.4
20260901105517 73 181 0.9 1.7 0.00 0.02 0.00 86 1010.4
20260901104553 73 182 0.9 1.7 0.00 0.02 0.00 86 1010.4
20260901103528 73 182 0.0 1.7 0.00 0.02 0.00 85 1010.0
20260901102525 73 182 0.0 0.9 0.00 0.02 0.00 85 1010.1
20260901101520 74 0.0 0.0 0.00 0.02 0.00 85 1010.1
20260901100516 74 182 0.9 1.7 0.00 0.02 0.00 85 1010.1
20260901095533 74 182 0.9 3.5 0.00 0.02 0.00 85 1010.0
20260901094529 74 182 0.9 2.6 0.00 0.02 0.00 85 1010.0
20260901093525 74 181 0.9 2.6 0.00 0.02 0.00 85 1009.9